Year,Month,Day,Hour,Minute,Value (Times are PST for temperature in C)
2017,08,14,00,00,14.80
2017,08,14,00,01,14.80
2017,08,14,00,02,14.80
2017,08,14,00,03,14.90
2017,08,14,00,04,14.90
2017,08,14,00,05,14.80
2017,08,14,00,06,14.80
2017,08,14,00,07,14.80
2017,08,14,00,08,14.80
2017,08,14,00,09,14.80
2017,08,14,00,10,14.90
2017,08,14,00,11,14.90
2017,08,14,00,12,14.90
2017,08,14,00,13,15.00
2017,08,14,00,14,15.00
2017,08,14,00,15,15.10
2017,08,14,00,16,15.10
2017,08,14,00,17,15.00
2017,08,14,00,18,15.00
2017,08,14,00,19,15.00
2017,08,14,00,20,15.00
2017,08,14,00,21,15.00
2017,08,14,00,22,15.10
2017,08,14,00,23,15.10
2017,08,14,00,24,15.10
2017,08,14,00,25,15.10
2017,08,14,00,26,15.10
2017,08,14,00,27,15.10
2017,08,14,00,28,15.10
2017,08,14,00,29,15.10
2017,08,14,00,30,15.10
2017,08,14,00,31,15.10
2017,08,14,00,32,15.10
2017,08,14,00,33,15.10
2017,08,14,00,34,15.10
2017,08,14,00,35,15.10
2017,08,14,00,36,15.10
2017,08,14,00,37,15.10
2017,08,14,00,38,15.00
2017,08,14,00,39,15.00
2017,08,14,00,40,15.00
2017,08,14,00,41,15.00
2017,08,14,00,42,15.00
2017,08,14,00,43,14.90
2017,08,14,00,44,14.90
2017,08,14,00,45,14.90
2017,08,14,00,46,14.90
2017,08,14,00,47,14.80
2017,08,14,00,48,14.80
2017,08,14,00,49,14.80
2017,08,14,00,50,14.70
2017,08,14,00,51,14.70
2017,08,14,00,52,14.70
2017,08,14,00,53,14.70
2017,08,14,00,54,14.70
2017,08,14,00,55,14.70
2017,08,14,00,56,14.60
2017,08,14,00,57,14.60
2017,08,14,00,58,14.60
2017,08,14,00,59,14.60
2017,08,14,01,00,14.50
2017,08,14,01,01,14.50
2017,08,14,01,02,14.50
2017,08,14,01,03,14.50
2017,08,14,01,04,14.50
2017,08,14,01,05,14.40
2017,08,14,01,06,14.40
2017,08,14,01,07,14.40
2017,08,14,01,08,14.40
2017,08,14,01,09,14.40
2017,08,14,01,10,14.30
2017,08,14,01,11,14.30
2017,08,14,01,12,14.30
2017,08,14,01,13,14.30
2017,08,14,01,14,14.20
2017,08,14,01,15,14.20
2017,08,14,01,16,14.20
2017,08,14,01,17,14.10
2017,08,14,01,18,14.10
2017,08,14,01,19,14.00
2017,08,14,01,20,14.00
2017,08,14,01,21,13.90
2017,08,14,01,22,13.90
2017,08,14,01,23,13.90
2017,08,14,01,24,13.90
2017,08,14,01,25,13.90
2017,08,14,01,26,13.80
2017,08,14,01,27,13.70
2017,08,14,01,28,13.70
2017,08,14,01,29,13.70
2017,08,14,01,30,13.70
2017,08,14,01,31,13.70
2017,08,14,01,32,13.70
2017,08,14,01,33,13.70
2017,08,14,01,34,13.70
2017,08,14,01,35,13.70
2017,08,14,01,36,13.70
2017,08,14,01,37,13.70
2017,08,14,01,38,13.60
2017,08,14,01,39,13.60
2017,08,14,01,40,13.60
2017,08,14,01,41,13.60
2017,08,14,01,42,13.60
2017,08,14,01,43,13.60
2017,08,14,01,44,13.60
2017,08,14,01,45,13.60
2017,08,14,01,46,13.50
2017,08,14,01,47,13.50
2017,08,14,01,48,13.50
2017,08,14,01,49,13.50
2017,08,14,01,50,13.50
2017,08,14,01,51,13.50
2017,08,14,01,52,13.50
2017,08,14,01,53,13.60
2017,08,14,01,54,13.60
2017,08,14,01,55,13.60
2017,08,14,01,56,13.60
2017,08,14,01,57,13.70
2017,08,14,01,58,13.70
2017,08,14,01,59,13.70
2017,08,14,02,00,13.70
2017,08,14,02,01,13.70
2017,08,14,02,02,13.70
2017,08,14,02,03,13.70
2017,08,14,02,04,13.70
2017,08,14,02,05,13.70
2017,08,14,02,06,13.70
2017,08,14,02,07,13.70
2017,08,14,02,08,13.70
2017,08,14,02,09,13.70
2017,08,14,02,10,13.60
2017,08,14,02,11,13.70
2017,08,14,02,12,13.60
2017,08,14,02,13,13.60
2017,08,14,02,14,13.60
2017,08,14,02,15,13.60
2017,08,14,02,16,13.60
2017,08,14,02,17,13.50
2017,08,14,02,18,13.50
2017,08,14,02,19,13.40
2017,08,14,02,20,13.40
2017,08,14,02,21,13.40
2017,08,14,02,22,13.40
2017,08,14,02,23,13.40
2017,08,14,02,24,13.40
2017,08,14,02,25,13.30
2017,08,14,02,26,13.30
2017,08,14,02,27,13.30
2017,08,14,02,28,13.30
2017,08,14,02,29,13.30
2017,08,14,02,30,13.30
2017,08,14,02,31,13.30
2017,08,14,02,32,13.30
2017,08,14,02,33,13.30
2017,08,14,02,34,13.30
2017,08,14,02,35,13.30
2017,08,14,02,36,13.30
2017,08,14,02,37,13.30
2017,08,14,02,38,13.30
2017,08,14,02,39,13.30
2017,08,14,02,40,13.30
2017,08,14,02,41,13.30
2017,08,14,02,42,13.30
2017,08,14,02,43,13.30
2017,08,14,02,44,13.30
2017,08,14,02,45,13.30
2017,08,14,02,46,13.30
2017,08,14,02,47,13.30
2017,08,14,02,48,13.30
2017,08,14,02,49,13.30
2017,08,14,02,50,13.30
2017,08,14,02,51,13.30
2017,08,14,02,52,13.30
2017,08,14,02,53,13.30
2017,08,14,02,54,13.30
2017,08,14,02,55,13.20
2017,08,14,02,56,13.20
2017,08,14,02,57,13.20
2017,08,14,02,58,13.20
2017,08,14,02,59,13.10
2017,08,14,03,00,13.10
2017,08,14,03,01,13.10
2017,08,14,03,02,13.10
2017,08,14,03,03,13.10
2017,08,14,03,04,13.00
2017,08,14,03,05,13.00
2017,08,14,03,06,13.00
2017,08,14,03,07,12.90
2017,08,14,03,08,12.90
2017,08,14,03,09,12.90
2017,08,14,03,10,12.90
2017,08,14,03,11,12.90
2017,08,14,03,12,12.90
2017,08,14,03,13,12.90
2017,08,14,03,14,12.90
2017,08,14,03,15,12.90
2017,08,14,03,16,12.90
2017,08,14,03,17,12.80
2017,08,14,03,18,12.80
2017,08,14,03,19,12.70
2017,08,14,03,20,12.60
2017,08,14,03,21,12.60
2017,08,14,03,22,12.50
2017,08,14,03,23,12.40
2017,08,14,03,24,12.40
2017,08,14,03,25,12.30
2017,08,14,03,26,12.30
2017,08,14,03,27,12.20
2017,08,14,03,28,12.20
2017,08,14,03,29,12.20
2017,08,14,03,30,12.20
2017,08,14,03,31,12.20
2017,08,14,03,32,12.10
2017,08,14,03,33,12.10
2017,08,14,03,34,12.10
2017,08,14,03,35,12.00
2017,08,14,03,36,12.00
2017,08,14,03,37,12.00
2017,08,14,03,38,11.90
2017,08,14,03,39,11.80
2017,08,14,03,40,11.80
2017,08,14,03,41,11.80
2017,08,14,03,42,11.70
2017,08,14,03,43,11.70
2017,08,14,03,44,11.70
2017,08,14,03,45,11.70
2017,08,14,03,46,11.70
2017,08,14,03,47,11.60
2017,08,14,03,48,11.60
2017,08,14,03,49,11.60
2017,08,14,03,50,11.60
2017,08,14,03,51,11.60
2017,08,14,03,52,11.60
2017,08,14,03,53,11.60
2017,08,14,03,54,11.60
2017,08,14,03,55,11.50
2017,08,14,03,56,11.50
2017,08,14,03,57,11.40
2017,08,14,03,58,11.40
2017,08,14,03,59,11.30
2017,08,14,04,00,11.30
2017,08,14,04,01,11.20
2017,08,14,04,02,11.20
2017,08,14,04,03,11.20
2017,08,14,04,04,11.10
2017,08,14,04,05,11.10
2017,08,14,04,06,11.10
2017,08,14,04,07,11.00
2017,08,14,04,08,11.00
2017,08,14,04,09,10.90
2017,08,14,04,10,10.90
2017,08,14,04,11,10.80
2017,08,14,04,12,10.80
2017,08,14,04,13,10.80
2017,08,14,04,14,10.80
2017,08,14,04,15,10.80
2017,08,14,04,16,10.90
2017,08,14,04,17,10.90
2017,08,14,04,18,10.90
2017,08,14,04,19,10.80
2017,08,14,04,20,10.80
2017,08,14,04,21,10.80
2017,08,14,04,22,10.80
2017,08,14,04,23,10.80
2017,08,14,04,24,10.90
2017,08,14,04,25,11.00
2017,08,14,04,26,11.10
2017,08,14,04,27,11.10
2017,08,14,04,28,11.10
2017,08,14,04,29,11.20
2017,08,14,04,30,11.10
2017,08,14,04,31,11.10
2017,08,14,04,32,11.10
2017,08,14,04,33,11.00
2017,08,14,04,34,11.00
2017,08,14,04,35,10.90
2017,08,14,04,36,10.80
2017,08,14,04,37,10.80
2017,08,14,04,38,10.80
2017,08,14,04,39,10.70
2017,08,14,04,40,10.70
2017,08,14,04,41,10.70
2017,08,14,04,42,10.70
2017,08,14,04,43,10.70
2017,08,14,04,44,10.80
2017,08,14,04,45,10.80
2017,08,14,04,46,10.80
2017,08,14,04,47,10.80
2017,08,14,04,48,10.80
2017,08,14,04,49,10.80
2017,08,14,04,50,10.80
2017,08,14,04,51,10.70
2017,08,14,04,52,10.70
2017,08,14,04,53,10.70
2017,08,14,04,54,10.60
2017,08,14,04,55,10.60
2017,08,14,04,56,10.60
2017,08,14,04,57,10.60
2017,08,14,04,58,10.50
2017,08,14,04,59,10.50
2017,08,14,05,00,10.40
2017,08,14,05,01,10.40
2017,08,14,05,02,10.40
2017,08,14,05,03,10.40
2017,08,14,05,04,10.40
2017,08,14,05,05,10.40
2017,08,14,05,06,10.30
2017,08,14,05,07,10.30
2017,08,14,05,08,10.40
2017,08,14,05,09,10.40
2017,08,14,05,10,10.40
2017,08,14,05,11,10.30
2017,08,14,05,12,10.30
2017,08,14,05,13,10.30
2017,08,14,05,14,10.30
2017,08,14,05,15,10.30
2017,08,14,05,16,10.30
2017,08,14,05,17,10.30
2017,08,14,05,18,10.30
2017,08,14,05,19,10.20
2017,08,14,05,20,10.20
2017,08,14,05,21,10.20
2017,08,14,05,22,10.20
2017,08,14,05,23,10.20
2017,08,14,05,24,10.30
2017,08,14,05,25,10.30
2017,08,14,05,26,10.30
2017,08,14,05,27,10.30
2017,08,14,05,28,10.30
2017,08,14,05,29,10.30
2017,08,14,05,30,10.30
2017,08,14,05,31,10.30
2017,08,14,05,32,10.20
2017,08,14,05,33,10.20
2017,08,14,05,34,10.20
2017,08,14,05,35,10.20
2017,08,14,05,36,10.30
2017,08,14,05,37,10.30
2017,08,14,05,38,10.30
2017,08,14,05,39,10.30
2017,08,14,05,40,10.30
2017,08,14,05,41,10.30
2017,08,14,05,42,10.30
2017,08,14,05,43,10.30
2017,08,14,05,44,10.30
2017,08,14,05,45,10.30
2017,08,14,05,46,10.30
2017,08,14,05,47,10.30
2017,08,14,05,48,10.30
2017,08,14,05,49,10.30
2017,08,14,05,50,10.30
2017,08,14,05,51,10.30
2017,08,14,05,52,10.30
2017,08,14,05,53,10.30
2017,08,14,05,54,10.30
2017,08,14,05,55,10.30
2017,08,14,05,56,10.30
2017,08,14,05,57,10.30
2017,08,14,05,58,10.30
2017,08,14,05,59,10.30
2017,08,14,06,00,10.30
2017,08,14,06,01,10.30
2017,08,14,06,02,10.30
2017,08,14,06,03,10.40
2017,08,14,06,04,10.40
2017,08,14,06,05,10.40
2017,08,14,06,06,10.40
2017,08,14,06,07,10.40
2017,08,14,06,08,10.40
2017,08,14,06,09,10.40
2017,08,14,06,10,10.40
2017,08,14,06,11,10.50
2017,08,14,06,12,10.50
2017,08,14,06,13,10.50
2017,08,14,06,14,10.50
2017,08,14,06,15,10.50
2017,08,14,06,16,10.50
2017,08,14,06,17,10.50
2017,08,14,06,18,10.50
2017,08,14,06,19,10.50
2017,08,14,06,20,10.50
2017,08,14,06,21,10.50
2017,08,14,06,22,10.50
2017,08,14,06,23,10.50
2017,08,14,06,24,10.40
2017,08,14,06,25,10.40
2017,08,14,06,26,10.40
2017,08,14,06,27,10.40
2017,08,14,06,28,10.40
2017,08,14,06,29,10.40
2017,08,14,06,30,10.40
2017,08,14,06,31,10.30
2017,08,14,06,32,10.30
2017,08,14,06,33,10.30
2017,08,14,06,34,10.30
2017,08,14,06,35,10.30
2017,08,14,06,36,10.30
2017,08,14,06,37,10.30
2017,08,14,06,38,10.30
2017,08,14,06,39,10.30
2017,08,14,06,40,10.30
2017,08,14,06,41,10.30
2017,08,14,06,42,10.30
2017,08,14,06,43,10.20
2017,08,14,06,44,10.20
2017,08,14,06,45,10.20
2017,08,14,06,46,10.20
2017,08,14,06,47,10.20
2017,08,14,06,48,10.20
2017,08,14,06,49,10.20
2017,08,14,06,50,10.20
2017,08,14,06,51,10.20
2017,08,14,06,52,10.10
2017,08,14,06,53,10.10
2017,08,14,06,54,10.20
2017,08,14,06,55,10.10
2017,08,14,06,56,10.20
2017,08,14,06,57,10.20
2017,08,14,06,58,10.20
2017,08,14,06,59,10.20
2017,08,14,07,00,10.20
2017,08,14,07,01,10.30
2017,08,14,07,02,10.30
2017,08,14,07,03,10.30
2017,08,14,07,04,10.30
2017,08,14,07,05,10.40
2017,08,14,07,06,10.40
2017,08,14,07,07,10.40
2017,08,14,07,08,10.50
2017,08,14,07,09,10.50
2017,08,14,07,10,10.60
2017,08,14,07,11,10.60
2017,08,14,07,12,10.60
2017,08,14,07,13,10.70
2017,08,14,07,14,10.70
2017,08,14,07,15,10.70
2017,08,14,07,16,10.80
2017,08,14,07,17,10.80
2017,08,14,07,18,10.80
2017,08,14,07,19,10.80
2017,08,14,07,20,10.80
2017,08,14,07,21,10.80
2017,08,14,07,22,10.90
2017,08,14,07,23,10.90
2017,08,14,07,24,10.90
2017,08,14,07,25,10.90
2017,08,14,07,26,11.00
2017,08,14,07,27,11.00
2017,08,14,07,28,11.00
2017,08,14,07,29,11.10
2017,08,14,07,30,11.10
2017,08,14,07,31,11.10
2017,08,14,07,32,11.10
2017,08,14,07,33,11.10
2017,08,14,07,34,11.20
2017,08,14,07,35,11.20
2017,08,14,07,36,11.20
2017,08,14,07,37,11.20
2017,08,14,07,38,11.20
2017,08,14,07,39,11.20
2017,08,14,07,40,11.30
2017,08,14,07,41,11.30
2017,08,14,07,42,11.30
2017,08,14,07,43,11.30
2017,08,14,07,44,11.40
2017,08,14,07,45,11.40
2017,08,14,07,46,11.50
2017,08,14,07,47,11.50
2017,08,14,07,48,11.60
2017,08,14,07,49,11.60
2017,08,14,07,50,11.60
2017,08,14,07,51,11.70
2017,08,14,07,52,11.70
2017,08,14,07,53,11.80
2017,08,14,07,54,11.80
2017,08,14,07,55,11.90
2017,08,14,07,56,11.90
2017,08,14,07,57,12.00
2017,08,14,07,58,12.00
2017,08,14,07,59,12.00
2017,08,14,08,00,12.10
2017,08,14,08,01,12.10
2017,08,14,08,02,12.10
2017,08,14,08,03,12.20
2017,08,14,08,04,12.20
2017,08,14,08,05,12.30
2017,08,14,08,06,12.30
2017,08,14,08,07,12.40
2017,08,14,08,08,12.50
2017,08,14,08,09,12.50
2017,08,14,08,10,12.60
2017,08,14,08,11,12.60
2017,08,14,08,12,12.70
2017,08,14,08,13,12.70
2017,08,14,08,14,12.80
2017,08,14,08,15,12.80
2017,08,14,08,16,12.80
2017,08,14,08,17,12.90
2017,08,14,08,18,12.90
2017,08,14,08,19,12.90
2017,08,14,08,20,13.00
2017,08,14,08,21,13.00
2017,08,14,08,22,13.00
2017,08,14,08,23,13.10
2017,08,14,08,24,13.20
2017,08,14,08,25,13.20
2017,08,14,08,26,13.30
2017,08,14,08,27,13.30
2017,08,14,08,28,13.40
2017,08,14,08,29,13.40
2017,08,14,08,30,13.50
2017,08,14,08,31,13.60
2017,08,14,08,32,13.60
2017,08,14,08,33,13.70
2017,08,14,08,34,13.70
2017,08,14,08,35,13.70
2017,08,14,08,36,13.80
2017,08,14,08,37,13.80
2017,08,14,08,38,13.90
2017,08,14,08,39,13.90
2017,08,14,08,40,14.00
2017,08,14,08,41,14.10
2017,08,14,08,42,14.20
2017,08,14,08,43,14.20
2017,08,14,08,44,14.20
2017,08,14,08,45,14.30
2017,08,14,08,46,14.30
2017,08,14,08,47,14.30
2017,08,14,08,48,14.30
2017,08,14,08,49,14.40
2017,08,14,08,50,14.40
2017,08,14,08,51,14.40
2017,08,14,08,52,14.40
2017,08,14,08,53,14.40
2017,08,14,08,54,14.30
2017,08,14,08,55,14.40
2017,08,14,08,56,14.40
2017,08,14,08,57,14.40
2017,08,14,08,58,14.40
2017,08,14,08,59,14.30
2017,08,14,09,00,14.30
2017,08,14,09,01,14.20
2017,08,14,09,02,14.10
2017,08,14,09,03,14.10
2017,08,14,09,04,14.00
2017,08,14,09,05,14.00
2017,08,14,09,06,14.00
2017,08,14,09,07,14.10
2017,08,14,09,08,14.10
2017,08,14,09,09,14.20
2017,08,14,09,10,14.20
2017,08,14,09,11,14.30
2017,08,14,09,12,14.30
2017,08,14,09,13,14.30
2017,08,14,09,14,14.40
2017,08,14,09,15,14.50
2017,08,14,09,16,14.60
2017,08,14,09,17,14.60
2017,08,14,09,18,14.60
2017,08,14,09,19,14.70
2017,08,14,09,20,14.70
2017,08,14,09,21,14.70
2017,08,14,09,22,14.70
2017,08,14,09,23,14.80
2017,08,14,09,24,14.80
2017,08,14,09,25,14.90
2017,08,14,09,26,15.00
2017,08,14,09,27,15.00
2017,08,14,09,28,15.10
2017,08,14,09,29,15.20
2017,08,14,09,30,15.20
2017,08,14,09,31,15.20
2017,08,14,09,32,15.30
2017,08,14,09,33,15.30
2017,08,14,09,34,15.40
2017,08,14,09,35,15.40
2017,08,14,09,36,15.30
2017,08,14,09,37,15.20
2017,08,14,09,38,15.10
2017,08,14,09,39,15.10
2017,08,14,09,40,15.00
2017,08,14,09,41,14.90
2017,08,14,09,42,14.80
2017,08,14,09,43,14.70
2017,08,14,09,44,14.60
2017,08,14,09,45,14.60
2017,08,14,09,46,14.60
2017,08,14,09,47,14.60
2017,08,14,09,48,14.60
2017,08,14,09,49,14.60
2017,08,14,09,50,14.50
2017,08,14,09,51,14.50
2017,08,14,09,52,14.50
2017,08,14,09,53,14.40
2017,08,14,09,54,14.40
2017,08,14,09,55,14.40
2017,08,14,09,56,14.40
2017,08,14,09,57,14.30
2017,08,14,09,58,14.30
2017,08,14,09,59,14.30
2017,08,14,10,00,14.30
2017,08,14,10,01,14.30
2017,08,14,10,02,14.30
2017,08,14,10,03,14.40
2017,08,14,10,04,14.40
2017,08,14,10,05,14.40
2017,08,14,10,06,14.40
2017,08,14,10,07,14.40
2017,08,14,10,08,14.40
2017,08,14,10,09,14.50
2017,08,14,10,10,14.50
2017,08,14,10,11,14.50
2017,08,14,10,12,14.60
2017,08,14,10,13,14.60
2017,08,14,10,14,14.70
2017,08,14,10,15,14.70
2017,08,14,10,16,14.70
2017,08,14,10,17,14.70
2017,08,14,10,18,14.80
2017,08,14,10,19,14.80
2017,08,14,10,20,14.90
2017,08,14,10,21,14.90
2017,08,14,10,22,15.00
2017,08,14,10,23,15.10
2017,08,14,10,24,15.10
2017,08,14,10,25,15.10
2017,08,14,10,26,15.20
2017,08,14,10,27,15.20
2017,08,14,10,28,15.20
2017,08,14,10,29,15.20
2017,08,14,10,30,15.30
2017,08,14,10,31,15.30
2017,08,14,10,32,15.30
2017,08,14,10,33,15.30
2017,08,14,10,34,15.40
2017,08,14,10,35,15.40
2017,08,14,10,36,15.50
2017,08,14,10,37,15.50
2017,08,14,10,38,15.60
2017,08,14,10,39,15.60
2017,08,14,10,40,15.60
2017,08,14,10,41,15.60
2017,08,14,10,42,15.60
2017,08,14,10,43,15.60
2017,08,14,10,44,15.60
2017,08,14,10,45,15.70
2017,08,14,10,46,15.80
2017,08,14,10,47,15.80
2017,08,14,10,48,15.90
2017,08,14,10,49,15.90
2017,08,14,10,50,15.90
2017,08,14,10,51,15.90
2017,08,14,10,52,15.90
2017,08,14,10,53,15.90
2017,08,14,10,54,15.80
2017,08,14,10,55,15.80
2017,08,14,10,56,15.80
2017,08,14,10,57,15.80
2017,08,14,10,58,15.90
2017,08,14,10,59,15.90
2017,08,14,11,00,16.00
2017,08,14,11,01,16.00
2017,08,14,11,02,16.10
2017,08,14,11,03,16.20
2017,08,14,11,04,16.20
2017,08,14,11,05,16.30
2017,08,14,11,06,16.20
2017,08,14,11,07,16.20
2017,08,14,11,08,16.20
2017,08,14,11,09,16.20
2017,08,14,11,10,16.20
2017,08,14,11,11,16.20
2017,08,14,11,12,16.20
2017,08,14,11,13,16.30
2017,08,14,11,14,16.20
2017,08,14,11,15,16.20
2017,08,14,11,16,16.20
2017,08,14,11,17,16.30
2017,08,14,11,18,16.40
2017,08,14,11,19,16.40
2017,08,14,11,20,16.50
2017,08,14,11,21,16.50
2017,08,14,11,22,16.60
2017,08,14,11,23,16.70
2017,08,14,11,24,16.80
2017,08,14,11,25,16.90
2017,08,14,11,26,16.90
2017,08,14,11,27,16.90
2017,08,14,11,28,16.90
2017,08,14,11,29,16.80
2017,08,14,11,30,16.80
2017,08,14,11,31,16.80
2017,08,14,11,32,16.90
2017,08,14,11,33,16.90
2017,08,14,11,34,17.00
2017,08,14,11,35,17.10
2017,08,14,11,36,17.10
2017,08,14,11,37,17.20
2017,08,14,11,38,17.20
2017,08,14,11,39,17.20
2017,08,14,11,40,17.30
2017,08,14,11,41,17.40
2017,08,14,11,42,17.50
2017,08,14,11,43,17.50
2017,08,14,11,44,17.50
2017,08,14,11,45,17.40
2017,08,14,11,46,17.40
2017,08,14,11,47,17.30
2017,08,14,11,48,17.30
2017,08,14,11,49,17.30
2017,08,14,11,50,17.30
2017,08,14,11,51,17.30
2017,08,14,11,52,17.30
2017,08,14,11,53,17.20
2017,08,14,11,54,17.20
2017,08,14,11,55,17.20
2017,08,14,11,56,17.10
2017,08,14,11,57,17.10
2017,08,14,11,58,17.10
2017,08,14,11,59,17.10
2017,08,14,12,00,17.10
2017,08,14,12,01,17.20
2017,08,14,12,02,17.20
2017,08,14,12,03,17.20
2017,08,14,12,04,17.20
2017,08,14,12,05,17.30
2017,08,14,12,06,17.30
2017,08,14,12,07,17.40
2017,08,14,12,08,17.40
2017,08,14,12,09,17.30
2017,08,14,12,10,17.30
2017,08,14,12,11,17.30
2017,08,14,12,12,17.30
2017,08,14,12,13,17.30
2017,08,14,12,14,17.30
2017,08,14,12,15,17.30
2017,08,14,12,16,17.30
2017,08,14,12,17,17.30
2017,08,14,12,18,17.30
2017,08,14,12,19,17.30
2017,08,14,12,20,17.30
2017,08,14,12,21,17.30
2017,08,14,12,22,17.20
2017,08,14,12,23,17.20
2017,08,14,12,24,17.10
2017,08,14,12,25,17.00
2017,08,14,12,26,17.00
2017,08,14,12,27,16.90
2017,08,14,12,28,16.80
2017,08,14,12,29,16.80
2017,08,14,12,30,16.70
2017,08,14,12,31,16.70
2017,08,14,12,32,16.70
2017,08,14,12,33,16.70
2017,08,14,12,34,16.80
2017,08,14,12,35,16.80
2017,08,14,12,36,16.80
2017,08,14,12,37,16.80
2017,08,14,12,38,16.80
2017,08,14,12,39,16.90
2017,08,14,12,40,17.00
2017,08,14,12,41,17.10
2017,08,14,12,42,17.20
2017,08,14,12,43,17.30
2017,08,14,12,44,17.30
2017,08,14,12,45,17.30
2017,08,14,12,46,17.40
2017,08,14,12,47,17.40
2017,08,14,12,48,17.50
2017,08,14,12,49,17.60
2017,08,14,12,50,17.60
2017,08,14,12,51,17.60
2017,08,14,12,52,17.60
2017,08,14,12,53,17.60
2017,08,14,12,54,17.60
2017,08,14,12,55,17.60
2017,08,14,12,56,17.60
2017,08,14,12,57,17.50
2017,08,14,12,58,17.50
2017,08,14,12,59,17.50
2017,08,14,13,00,17.40
2017,08,14,13,01,17.40
2017,08,14,13,02,17.40
2017,08,14,13,03,17.40
2017,08,14,13,04,17.40
2017,08,14,13,05,17.40
2017,08,14,13,06,17.50
2017,08,14,13,07,17.50
2017,08,14,13,08,17.60
2017,08,14,13,09,17.60
2017,08,14,13,10,17.70
2017,08,14,13,11,17.70
2017,08,14,13,12,17.70
2017,08,14,13,13,17.70
2017,08,14,13,14,17.70
2017,08,14,13,15,17.70
2017,08,14,13,16,17.80
2017,08,14,13,17,17.80
2017,08,14,13,18,17.80
2017,08,14,13,19,17.80
2017,08,14,13,20,17.90
2017,08,14,13,21,17.90
2017,08,14,13,22,18.00
2017,08,14,13,23,18.00
2017,08,14,13,24,18.00
2017,08,14,13,25,18.00
2017,08,14,13,26,18.00
2017,08,14,13,27,18.00
2017,08,14,13,28,18.10
2017,08,14,13,29,18.10
2017,08,14,13,30,18.20
2017,08,14,13,31,18.20
2017,08,14,13,32,18.20
2017,08,14,13,33,18.30
2017,08,14,13,34,18.30
2017,08,14,13,35,18.40
2017,08,14,13,36,18.50
2017,08,14,13,37,18.60
2017,08,14,13,38,18.60
2017,08,14,13,39,18.70
2017,08,14,13,40,18.80
2017,08,14,13,41,18.70
2017,08,14,13,42,18.70
2017,08,14,13,43,18.60
2017,08,14,13,44,18.50
2017,08,14,13,45,18.50
2017,08,14,13,46,18.40
2017,08,14,13,47,18.30
2017,08,14,13,48,18.30
2017,08,14,13,49,18.30
2017,08,14,13,50,18.30
2017,08,14,13,51,18.30
2017,08,14,13,52,18.30
2017,08,14,13,53,18.30
2017,08,14,13,54,18.30
2017,08,14,13,55,18.30
2017,08,14,13,56,18.30
2017,08,14,13,57,18.30
2017,08,14,13,58,18.20
2017,08,14,13,59,18.20
2017,08,14,14,00,18.10
2017,08,14,14,01,18.10
2017,08,14,14,02,18.00
2017,08,14,14,03,18.00
2017,08,14,14,04,18.00
2017,08,14,14,05,18.00
2017,08,14,14,06,18.00
2017,08,14,14,07,18.00
2017,08,14,14,08,18.00
2017,08,14,14,09,18.00
2017,08,14,14,10,18.00
2017,08,14,14,11,18.00
2017,08,14,14,12,18.10
2017,08,14,14,13,18.10
2017,08,14,14,14,18.20
2017,08,14,14,15,18.20
2017,08,14,14,16,18.20
2017,08,14,14,17,18.30
2017,08,14,14,18,18.30
2017,08,14,14,19,18.30
2017,08,14,14,20,18.30
2017,08,14,14,21,18.30
2017,08,14,14,22,18.20
2017,08,14,14,23,18.30
2017,08,14,14,24,18.30
2017,08,14,14,25,18.30
2017,08,14,14,26,18.30
2017,08,14,14,27,18.30
2017,08,14,14,28,18.30
2017,08,14,14,29,18.30
2017,08,14,14,30,18.30
2017,08,14,14,31,18.40
2017,08,14,14,32,18.40
2017,08,14,14,33,18.50
2017,08,14,14,34,18.50
2017,08,14,14,35,18.60
2017,08,14,14,36,18.70
2017,08,14,14,37,18.90
2017,08,14,14,38,18.90
2017,08,14,14,39,19.00
2017,08,14,14,40,19.00
2017,08,14,14,41,19.00
2017,08,14,14,42,19.10
2017,08,14,14,43,19.20
2017,08,14,14,44,19.20
2017,08,14,14,45,19.30
2017,08,14,14,46,19.30
2017,08,14,14,47,19.30
2017,08,14,14,48,19.30
2017,08,14,14,49,19.20
2017,08,14,14,50,19.20
2017,08,14,14,51,19.20
2017,08,14,14,52,19.20
2017,08,14,14,53,19.20
2017,08,14,14,54,19.20
2017,08,14,14,55,19.30
2017,08,14,14,56,19.30
2017,08,14,14,57,19.30
2017,08,14,14,58,19.30
2017,08,14,14,59,19.30
2017,08,14,15,00,19.30
2017,08,14,15,01,19.20
2017,08,14,15,02,19.10
2017,08,14,15,03,19.10
2017,08,14,15,04,19.00
2017,08,14,15,05,19.00
2017,08,14,15,06,18.90
2017,08,14,15,07,18.90
2017,08,14,15,08,18.90
2017,08,14,15,09,18.90
2017,08,14,15,10,18.90
2017,08,14,15,11,18.90
2017,08,14,15,12,18.90
2017,08,14,15,13,18.90
2017,08,14,15,14,18.90
2017,08,14,15,15,18.90
2017,08,14,15,16,18.90
2017,08,14,15,17,18.80
2017,08,14,15,18,18.80
2017,08,14,15,19,18.80
2017,08,14,15,20,18.80
2017,08,14,15,21,18.70
2017,08,14,15,22,18.70
2017,08,14,15,23,18.60
2017,08,14,15,24,18.60
2017,08,14,15,25,18.50
2017,08,14,15,26,18.50
2017,08,14,15,27,18.50
2017,08,14,15,28,18.40
2017,08,14,15,29,18.40
2017,08,14,15,30,18.40
2017,08,14,15,31,18.30
2017,08,14,15,32,18.30
2017,08,14,15,33,18.30
2017,08,14,15,34,18.40
2017,08,14,15,35,18.40
2017,08,14,15,36,18.50
2017,08,14,15,37,18.70
2017,08,14,15,38,18.70
2017,08,14,15,39,18.80
2017,08,14,15,40,18.90
2017,08,14,15,41,19.00
2017,08,14,15,42,19.10
2017,08,14,15,43,19.20
2017,08,14,15,44,19.30
2017,08,14,15,45,19.40
2017,08,14,15,46,19.50
2017,08,14,15,47,19.60
2017,08,14,15,48,19.60
2017,08,14,15,49,19.60
2017,08,14,15,50,19.50
2017,08,14,15,51,19.50
2017,08,14,15,52,19.40
2017,08,14,15,53,19.30
2017,08,14,15,54,19.20
2017,08,14,15,55,19.10
2017,08,14,15,56,19.00
2017,08,14,15,57,18.90
2017,08,14,15,58,18.90
2017,08,14,15,59,18.80
2017,08,14,16,00,18.80
2017,08,14,16,01,18.80
2017,08,14,16,02,18.80
2017,08,14,16,03,18.80
2017,08,14,16,04,18.80
2017,08,14,16,05,18.80
2017,08,14,16,06,18.80
2017,08,14,16,07,18.80
2017,08,14,16,08,18.90
2017,08,14,16,09,18.90
2017,08,14,16,10,19.00
2017,08,14,16,11,19.10
2017,08,14,16,12,19.10
2017,08,14,16,13,19.10
2017,08,14,16,14,19.10
2017,08,14,16,15,19.10
2017,08,14,16,16,19.10
2017,08,14,16,17,19.10
2017,08,14,16,18,19.00
2017,08,14,16,19,19.00
2017,08,14,16,20,18.90
2017,08,14,16,21,18.90
2017,08,14,16,22,18.90
2017,08,14,16,23,18.90
2017,08,14,16,24,18.90
2017,08,14,16,25,18.90
2017,08,14,16,26,18.90
2017,08,14,16,27,18.90
2017,08,14,16,28,18.90
2017,08,14,16,29,18.90
2017,08,14,16,30,18.90
2017,08,14,16,31,18.90
2017,08,14,16,32,18.90
2017,08,14,16,33,18.80
2017,08,14,16,34,18.80
2017,08,14,16,35,18.80
2017,08,14,16,36,18.80
2017,08,14,16,37,18.80
2017,08,14,16,38,18.90
2017,08,14,16,39,18.80
2017,08,14,16,40,18.80
2017,08,14,16,41,18.80
2017,08,14,16,42,18.80
2017,08,14,16,43,18.80
2017,08,14,16,44,18.80
2017,08,14,16,45,18.70
2017,08,14,16,46,18.70
2017,08,14,16,47,18.70
2017,08,14,16,48,18.70
2017,08,14,16,49,18.70
2017,08,14,16,50,18.70
2017,08,14,16,51,18.70
2017,08,14,16,52,18.70
2017,08,14,16,53,18.70
2017,08,14,16,54,18.70
2017,08,14,16,55,18.70
2017,08,14,16,56,18.70
2017,08,14,16,57,18.70
2017,08,14,16,58,18.70
2017,08,14,16,59,18.70
2017,08,14,17,00,18.70
2017,08,14,17,01,18.70
2017,08,14,17,02,18.80
2017,08,14,17,03,18.80
2017,08,14,17,04,18.80
2017,08,14,17,05,18.80
2017,08,14,17,06,18.80
2017,08,14,17,07,18.80
2017,08,14,17,08,18.80
2017,08,14,17,09,18.80
2017,08,14,17,10,18.80
2017,08,14,17,11,18.80
2017,08,14,17,12,18.80
2017,08,14,17,13,18.90
2017,08,14,17,14,18.90
2017,08,14,17,15,19.00
2017,08,14,17,16,19.00
2017,08,14,17,17,19.00
2017,08,14,17,18,19.10
2017,08,14,17,19,19.10